星链-33758 (STARLINK-33758)

导读

STARLINK-33758是美国SpaceX公司星链(Starlink)星座的组网卫星,于2025年5月14日发射入轨。星链计划旨在构建全球覆盖、低时延高速的低轨卫星互联网星座,为全球偏远地区、海陆空移动场景提供宽带网络服务。STARLINK-33758作为星链星座最新批次卫星之一,将逐步完善星座覆盖能力,推进全球卫星互联网服务部署。

基本信息
目录编号:
64004
目录名称:
STARLINK-33758
国际标识:
2025-101L
轨道中心:
EARTH
卫星名称:
星链-33758
卫星全名:
星链-33758 (STARLINK-33758)
卫星状态:
在轨 (已飞行478 天)
发射日期:
2025-05-14 UTC
国别 :
美国 (US)
星等 :
--
轨道信息
数据来源 国际轨道数据
星历时间: 2026-09-03T22:28:44+0800
21小时前
查看轨道信息
半长轴: 6861.189km
偏心率: 0.0001592
轨道倾角: 43.001°
近地点辐角 264.899°
升交点赤经 73.297°
平近点角 95.168°
近地点: 481.959km
远地点: 484.145km
周期: 94.267分钟
每日圈数: 15.275793
详细信息
固有亮度:
5
最大亮度:
2.5
卫星平台:
Starlink V1.0
覆盖范围:
全球
运营商:
太空探索技术公司
运营商所在国:
美国
制造商(研发单位):
太空探索技术公司
制造商所在国:
美国
使用方式:
暂无
卫星简介
Starlink 计划是 SpaceX 推出的全球卫星互联网项目,通过发射低轨道卫星,为全球尤其是偏远地区提供高速、低延迟的互联网服务。自 2019 年起,Starlink 已部署数千颗卫星,旨在缩小全球数字鸿沟,推动互联网普及。该项目还为军事、航空等行业提供通信支持,带来广泛经济效益。
2D轨道图
3D轨道图
轨道高度分析图
轨道倾角分析图
轨道综合分析图
查看轨道综合分析图